This is the latest recevied weather packets stored in our database for station/object KK6LZB. If no packets are shown the sender has not sent any weather packets the latest 10 day(s).
| Time | Temp. | Humidity | Pressure | Rain* | Wind** | Luminosity | Snow |
|---|---|---|---|---|---|---|---|
| 1778034015 | 15° C | 83% | 1017.2 hPa | 0 mm | - | 9 W/m² | - |
| 1778033712 | 15° C | 82% | 1017 hPa | 0 mm | - | 11 W/m² | - |
| 1778033409 | 15° C | 82% | 1017 hPa | 0 mm | - | 14 W/m² | - |
| 1778033107 | 15.56° C | 80% | 1017 hPa | 0 mm | - | 17 W/m² | - |
| 1778032804 | 15.56° C | 80% | 1016.9 hPa | 0 mm | - | 21 W/m² | - |
| 1778032501 | 15.56° C | 79% | 1016.8 hPa | 0 mm | - | 22 W/m² | - |
| 1778032198 | 15.56° C | 78% | 1017.1 hPa | 0 mm | - | 24 W/m² | - |
| 1778031896 | 16.11° C | 77% | 1016.8 hPa | 0 mm | - | 26 W/m² | - |
| 1778031591 | 16.11° C | 73% | 1016.6 hPa | 0 mm | - | 28 W/m² | - |
| 1778031289 | 16.67° C | 72% | 1016.8 hPa | 0 mm | - | 32 W/m² | - |
| 1778030985 | 16.67° C | 72% | 1016.8 hPa | 0 mm | - | 34 W/m² | - |
| 1778030682 | 16.67° C | 71% | 1016.8 hPa | 0 mm | - | 36 W/m² | - |
| 1778030379 | 17.22° C | 70% | 1016.8 hPa | 0 mm | - | 51 W/m² | - |
| 1778030077 | 17.78° C | 68% | 1016.6 hPa | 0 mm | - | 96 W/m² | - |
| 1778029773 | 17.78° C | 70% | 1016.5 hPa | 0 mm | - | 102 W/m² | - |
| 1778029472 | 18.33° C | 70% | 1016.7 hPa | 0 mm | - | 116 W/m² | - |
| 1778029168 | 18.33° C | 68% | 1016.7 hPa | 0 mm | - | 129 W/m² | - |
| 1778028866 | 18.33° C | 69% | 1016.7 hPa | 0 mm | - | 137 W/m² | - |
| 1778028561 | 18.33° C | 66% | 1016.7 hPa | 0 mm | - | 149 W/m² | - |
| 1778028259 | 18.33° C | 66% | 1016.6 hPa | 0 mm | - | 161 W/m² | - |
| 1778027955 | 18.89° C | 64% | 1016.6 hPa | 0 mm | - | 172 W/m² | - |
| 1778027651 | 18.89° C | 64% | 1016.4 hPa | 0 mm | - | 184 W/m² | - |
| 1778027348 | 18.89° C | 63% | 1016.4 hPa | 0 mm | - | 196 W/m² | - |
| 1778027044 | 19.44° C | 63% | 1016.4 hPa | 0 mm | - | 209 W/m² | - |
| 1778026739 | 18.33° C | 64% | 1016.6 hPa | 0 mm | - | 221 W/m² | - |
* Rain latest hour (hover to see other rain measurements)
** Current wind speed in m/s (hover to see current wind gust speed)